Find Starlink 34517

NORAD ID: 64595 Int'l Des: 2025-137 Owner: SPXS Country: US Constellation: starlink operational
LEOCIRCULAR

現在のビュー

3D地球を読み込み中...

About Starlink 34517

Starlink 34517 (NORAD 64595) is a starlink constellation satellite (v2 mini) launched Jun 25, 2025 by SPXS of US. It operates in LEO, CIRCULAR orbit with a mass of 575.00 kg.

次回通過

Passes for default location (London). Set your location on the main map for personalized predictions.

高度履歴

Loading altitude history...

軌道要素

1 64595U 25137B 26228.52441731 .00019004 00000-0 57225-3 0 9992
2 64595 53.1589 310.8877 0000802 58.8772 301.2309 15.34394328 65239
Epoch: Aug 16, 2026 • Age: 8 hours

現在のステータス

高度 472.6 km
遠地点 / 近地点 N/A
速度 7.63 km/s
衛星直下点 -31.79°S, 13.3°E
打ち上げ日 Jun 25, 2025
運用期間 1.1 years
タイプ internet

技術仕様

分類 Payload
質量 575.00 kg
乾燥質量 530.00 kg
総質量 575.00 kg
長さ 0.30 m
直径 4.10 m
スパン 29.00 m
形状 Box + pan
製造者 SPXS
バスタイプ Starlink V2MO
フェーズステータス In Orbit
所有者/国 SPXS/US

Most Searched